EW6492 Weather Reports


Display with metric or nautical units.
time (UTC)temp
F
wind
direction
speed
MPH
gust
MPH
rain 1hr
in
rain 24hr
in
rain mn
in
humidity
%
barometer
mb
20190723180143 79 45 1.0 13.0 0.00 0.17 0.00 49 1004.7
20190723174639 78 86 1.0 7.0 0.00 0.25 0.00 48 1004.7
20190723173109 78 72 0.0 7.0 0.00 0.25 0.00 48 1004.9
20190723171641 78 288 0.0 5.0 0.00 0.25 0.00 47 1004.9
20190723170129 77 342 0.0 9.0 0.00 0.25 0.00 52 1005.0
20190723164634 77 9 2.0 7.0 0.00 0.27 0.00 50 1005.2
20190723163150 76 69 0.0 6.0 0.00 0.27 0.00 52 1005.2
20190723161627 76 57 2.0 8.0 0.00 0.27 0.00 48 1005.4
20190723160100 76 21 1.0 8.0 0.00 0.27 0.00 47 1005.4
20190723154533 75 321 1.0 5.0 0.00 0.34 0.00 53 1005.3
20190723153140 76 202 2.0 4.0 0.00 0.34 0.00 52 1005.4
20190723151538 75 37 1.0 5.0 0.00 0.34 0.00 56 1005.3
20190723150058 74 83 2.0 7.0 0.00 0.34 0.00 56 1005.2
20190723144600 74 36 1.0 5.0 0.00 0.34 0.00 57 1005.2
20190723143052 74 32 0.0 4.0 0.00 0.34 0.00 65 1005.2
20190723141525 72 38 0.0 3.0 0.00 0.34 0.00 68 1005.1
20190723140027 72 49 1.0 3.0 0.00 0.34 0.00 69 1005.1
20190723134518 71 304 0.0 2.0 0.00 0.34 0.00 74 1005.0
20190723133009 71 306 0.0 3.0 0.00 0.34 0.00 75 1004.9
20190723131505 70 292 0.0 1.0 0.00 0.34 0.00 77 1004.7
20190723130011 69 292 0.0 1.0 0.00 0.34 0.00 81 1004.6
20190723124640 67 298 0.0 1.0 0.00 0.34 0.00 83 1004.6
20190723123131 66 265 0.0 1.0 0.00 0.34 0.00 85 1004.4
20190723121705 65 260 0.0 3.0 0.00 0.34 0.00 88 1004.3
20190723120144 64 322 0.0 2.0 0.00 0.34 0.00 90 1004.3
20190723114619 63 311 0.0 2.0 0.00 0.34 0.00 91 1004.2
20190723113126 62 291 0.0 4.0 0.00 0.34 0.00 91 1004.1
20190723111610 62 298 0.0 4.0 0.00 0.34 0.00 92 1003.9
20190723110127 61 235 0.0 2.0 0.00 0.34 0.00 93 1003.9
20190723104726 61 311 0.0 2.0 0.00 0.34 0.00 92 1003.9
20190723103135 61 304 0.0 2.0 0.00 0.34 0.00 92 1003.8
20190723101613 61 304 0.0 2.0 0.00 0.34 0.00 92 1003.7
20190723100118 62 304 0.0 3.0 0.00 0.34 0.00 92 1003.6
20190723094604 62 304 0.0 2.0 0.00 0.35 0.00 91 1003.5
20190723093116 62 332 0.0 4.0 0.00 0.35 0.00 91 1003.4
20190723091609 62 312 0.0 2.0 0.00 0.35 0.00 91 1003.3
20190723090049 62 310 0.0 2.0 0.00 0.35 0.00 91 1003.3
20190723084600 63 296 0.0 6.0 0.00 0.35 0.00 90 1003.2
20190723083133 63 292 0.0 3.0 0.00 0.35 0.00 90 1003.2
20190723081627 63 313 0.0 3.0 0.00 0.35 0.00 90 1003.2
20190723080116 63 314 0.0 4.0 0.00 0.35 0.00 90 1003.2
20190723074557 63 316 0.0 4.0 0.00 0.35 0.00 89 1003.1
20190723073057 63 304 0.0 4.0 0.00 0.35 0.00 89 1003.0
20190723071550 63 330 1.0 3.0 0.00 0.35 0.00 90 1002.9
20190723070106 63 311 0.0 2.0 0.00 0.35 0.00 90 1002.9
20190723064543 64 308 0.0 0.0 0.00 0.35 0.00 89 1002.9
20190723063047 64 308 0.0 2.0 0.00 0.35 0.00 89 1002.9
20190723061554 64 299 0.0 0.0 0.00 0.35 0.00 89 1002.9
20190723060052 64 299 0.0 0.0 0.00 0.35 0.00 88 1003.1
20190723054533 65 299 0.0 0.0 0.00 0.38 0.00 87 1003.2
20190723053029 65 299 0.0 0.0 0.00 0.38 0.00 87 1003.2
20190723051539 66 299 0.0 1.0 0.00 0.38 0.00 86 1003.0
20190723050021 66 298 0.0 3.0 0.00 0.38 0.00 87 1003.0
20190723044544 66 310 0.0 1.0 0.00 0.39 0.00 88 1003.0
20190723043023 66 310 0.0 2.0 0.00 0.39 0.00 88 1002.9
20190723041535 67 321 0.0 2.0 0.00 0.39 0.00 90 1002.9
20190723040014 67 321 0.0 4.0 0.00 0.39 0.00 91 1002.9
20190723034509 67 313 0.0 4.0 0.00 0.39 0.39 93 1003.1
20190723033035 67 336 1.0 5.0 0.00 0.39 0.39 94 1003.0
20190723031535 68 290 0.0 0.0 0.00 0.39 0.39 95 1003.0
20190723030003 68 290 0.0 0.0 0.00 0.39 0.39 95 1002.9
20190723024516 68 290 0.0 0.0 0.00 0.39 0.39 94 1002.7
20190723023335 68 290 0.0 1.0 0.00 0.39 0.39 94 1002.8
20190723021822 68 290 0.0 2.0 0.00 0.39 0.39 94 1002.7
20190723020144 68 283 0.0 3.0 0.00 0.39 0.39 93 1002.6
20190723014740 68 302 0.0 2.0 0.00 0.39 0.39 94 1002.5
20190723013251 68 302 0.0 2.0 0.00 0.39 0.39 93 1002.4
20190723011635 69 301 0.0 2.0 0.00 0.39 0.39 93 1002.4
20190723010239 69 301 0.0 2.0 0.00 0.39 0.39 93 1002.2
20190723004723 69 261 0.0 2.0 0.00 0.39 0.39 93 1002.1
20190723003112 69 254 0.0 2.0 0.00 0.39 0.39 94 1002.1
20190723001617 69 290 0.0 1.0 0.00 0.39 0.39 94 1002.0
20190723000112 69 289 0.0 3.0 0.00 0.39 0.39 94 1001.8
20190722234615 69 230 0.0 2.0 0.00 0.39 0.39 94 1001.8
20190722233111 68 256 0.0 3.0 0.00 0.39 0.39 94 1001.5
20190722231624 68 310 0.0 2.0 0.00 0.39 0.39 94 1001.5
20190722230116 68 344 0.0 5.0 0.00 0.39 0.39 94 1001.0
20190722224622 69 17 0.0 2.0 0.00 0.39 0.39 95 1001.3
20190722223118 69 309 0.0 3.0 0.00 0.39 0.39 95 1001.1
20190722221558 70 336 0.0 7.0 0.00 0.39 0.39 96 1001.1
20190722220047 70 298 0.0 6.0 0.00 0.39 0.39 96 1001.2
20190722214607 70 284 0.0 4.0 0.00 0.39 0.39 96 1000.8
20190722213139 70 284 0.0 2.0 0.01 0.39 0.39 96 1000.5
20190722211547 71 231 0.0 2.0 0.02 0.39 0.39 96 1000.5
20190722210118 71 130 0.0 0.0 0.03 0.39 0.39 97 1000.6
20190722204552 70 130 0.0 3.0 0.05 0.39 0.39 96 1000.6
20190722203140 70 222 0.0 1.0 0.07 0.38 0.38 96 1000.7
20190722201633 70 82 0.0 1.0 0.11 0.37 0.37 96 1000.8
20190722200113 69 82 0.0 2.0 0.11 0.36 0.36 96 1000.8
20190722194544 69 14 0.0 7.0 0.11 0.34 0.34 96 1000.5
20190722193102 69 42 0.0 3.0 0.08 0.31 0.31 96 1000.5
20190722191548 70 323 0.0 5.0 0.03 0.26 0.26 95 1000.1
20190722190055 70 316 0.0 3.0 0.03 0.25 0.25 95 1000.1
20190722184544 70 263 0.0 3.0 0.03 0.23 0.23 95 1000.0
20190722183044 70 317 0.0 2.0 0.05 0.23 0.23 95 999.8
20190722181603 71 302 0.0 3.0 0.05 0.23 0.23 95 999.8